Wind_Speed
5 4 4 3 2 1 2 2 2 1 1 2 2 2 2 2 3 3 3 2 2 2 3 3 3 2 3 3 3 4 3 2 1 1 2 2 1 1 2 2 2 3 2
6 5 4 3 3 2 2 2 2 2 2 2 3 3 2 2 3 3 3 2 2 2 2 2 2 3 3 3 3 3 2 1 1 1 2 2 2 1 2 2 2 3 3
7 6 5 5 4 3 3 2 2 2 3 3 3 2 3 3 3 3 3 3 2 2 2 2 3 3 4 3 3 2 2 2 1 2 2 2 1 2 2 2 2 2 3
8 7 7 6 6 5 4 4 3 4 3 3 3 2 3 3 3 3 3 2 2 3 3 3 4 4 4 4 3 3 3 3 2 2 2 2 2 2 2 2 3 2 3
9 8 8 7 7 6 5 4 4 4 4 3 3 3 3 2 3 3 2 2 2 3 3 3 4 4 4 4 3 4 3 3 3 3 2 2 2 3 3 2 3 3 3
10 9 9 8 7 7 5 5 5 5 4 3 3 3 2 2 2 2 2 2 2 2 2 3 3 4 4 3 3 4 4 4 4 3 3 3 3 3 3 3 3 2 2
10 10 9 9 8 7 6 6 6 5 4 4 3 3 3 2 1 1 2 2 2 2 2 2 2 3 3 3 3 3 4 4 4 4 3 3 3 4 4 3 3 2 2
12 11 10 9 9 8 8 7 6 6 5 5 4 4 3 2 2 1 1 1 1 2 1 2 1 1 2 1 2 3 3 3 3 4 4 3 3 3 4 4 3 3 3
13 12 11 10 10 9 8 7 7 6 5 5 5 4 3 3 2 2 1 1 1 1 1 1 1 1 2 2 2 3 3 2 3 3 3 3 3 3 4 4 4 4 4
13 13 12 11 10 10 9 8 7 7 7 6 5 5 4 3 3 3 2 2 2 1 2 1 1 1 1 1 2 3 3 3 3 3 3 3 4 4 5 5 5 6 6
12 12 12 11 10 10 9 8 8 8 8 7 7 6 6 5 4 4 3 3 3 2 2 2 2 2 2 2 2 3 3 3 3 3 4 4 4 5 6 6 7 7 8
12 12 13 12 11 10 10 10 10 9 9 9 8 8 7 6 6 5 5 4 4 3 3 3 3 3 3 3 3 4 3 3 3 4 5 5 6 7 7 7 8 9 9
13 14 14 12 12 11 12 11 11 11 11 10 10 9 8 8 7 7 6 6 6 5 4 4 4 4 4 4 4 4 4 4 4 5 6 7 8 8 9 9 10 10 10
14 14 15 13 13 13 13 13 12 12 12 12 11 10 10 9 8 8 8 8 8 7 7 6 6 5 5 5 5 5 5 6 6 7 8 9 9 10 10 11 11 12 12
14 15 15 14 14 14 13 13 13 12 12 12 11 11 11 10 10 10 10 9 9 9 9 8 8 8 8 7 7 7 8 8 8 9 10 10 11 12 12 12 13 14 15
15 15 15 15 14 14 14 13 13 13 13 13 13 12 12 13 12 12 12 12 11 11 11 10 10 10 10 10 10 10 10 10 10 11 12 13 13 14 14 14 15 16 16
15 14 14 15 15 15 15 14 14 14 14 14 14 14 14 14 14 14 14 14 13 13 12 12 12 12 12 12 12 12 12 13 13 14 15 15 16 16 17 17 18 19 19
15 15 15 15 16 16 16 16 15 15 15 15 15 15 15 16 16 15 15 14 14 14 14 14 14 14 14 14 14 14 15 15 16 16 17 18 18 19 20 20 21 22 22
16 16 16 16 16 17 18 17 17 16 16 16 16 16 16 17 17 17 16 15 16 16 15 15 15 16 16 17 18 18 18 18 18 19 19 20 21 22 23 23 24 25 25
16 17 17 18 17 18 18 18 18 18 18 18 18 18 18 18 18 17 17 17 17 17 17 18 18 18 19 20 21 21 21 21 22 22 22 23 23 24 25 26 27 27 28
16 16 17 17 17 18 18 19 19 19 19 20 20 20 20 19 19 19 19 19 19 19 19 20 21 21 22 23 23 23 24 24 25 26 26 26 27 27 27 28 29 30 31
16 16 16 18 18 18 18 19 20 20 19 20 22 21 21 20 21 21 21 21 22 22 22 23 23 24 25 25 26 26 27 27 28 29 29 29 29 30 30 31 32 33 34
16 16 16 18 19 19 18 19 20 20 20 21 21 21 21 22 22 23 23 23 24 25 25 25 26 27 27 28 29 30 31 31 31 32 32 32 33 33 34 34 35 36 37
17 18 18 17 18 19 19 19 20 20 20 19 20 21 22 22 23 24 24 25 25 26 27 28 29 29 30 31 31 31 33 34 34 35 36 36 37 37 37 38 39 40 40
18 17 16 17 18 18 18 19 19 19 20 20 21 21 22 23 23 24 25 26 27 27 29 30 31 32 32 32 33 33 34 35 36 36 38 39 39 39 39 40 40 41 42
17 18 17 17 17 17 18 18 18 19 19 20 21 21 22 22 23 24 25 26 27 28 30 32 33 33 34 35 36 36 37 37 38 38 40 41 41 41 41 41 42 43 43
Wind_Direction
243 243 236 243 244 255 263 263 254 259 277 309 314 329 346 352 348 340 345 353 348 331 331 325 319 319 342 335 331 334 326 315 313 330 345 357 327 286 268 288 277 252 258
244 246 246 251 261 257 253 266 253 256 271 281 300 315 328 335 341 341 336 332 327 334 339 355 1 355 357 350 337 338 357 343 324 326 341 345 352 346 309 283 281 262 266
247 251 256 267 269 260 260 269 270 276 274 275 283 300 323 329 337 343 337 337 343 347 348 8 17 18 18 12 12 24 24 20 358 336 339 343 336 337 334 328 314 290 281
247 251 260 270 273 269 271 277 275 279 276 275 283 294 316 328 337 348 352 359 10 16 21 22 26 24 24 30 36 36 32 27 18 8 9 2 346 339 337 329 330 311 299
246 248 257 265 269 272 270 274 276 277 272 267 279 292 302 320 340 346 0 25 30 35 34 32 34 35 36 40 45 42 38 29 27 28 20 11 7 356 347 341 333 324 320
247 248 256 260 259 263 261 269 275 277 276 273 278 287 294 318 342 357 1 20 30 32 40 39 32 33 39 48 52 48 37 31 32 32 30 28 16 3 0 355 339 340 340
251 253 255 255 254 256 259 266 270 270 271 273 274 283 294 309 343 355 2 9 16 27 35 38 38 41 39 44 51 45 37 38 42 40 35 31 26 19 15 13 7 355 341
251 250 250 251 254 257 259 264 264 261 267 275 277 280 282 287 297 320 343 358 6 16 25 40 50 34 24 30 38 28 26 33 35 31 31 29 24 20 22 22 14 1 345
246 247 248 252 256 258 259 260 259 256 261 269 271 271 264 266 271 277 292 315 341 3 2 19 39 14 4 2 9 13 11 12 11 12 19 22 22 20 14 6 358 344 336
243 244 248 251 257 257 255 255 256 255 257 262 268 263 260 265 267 268 275 282 290 306 330 328 333 355 1 4 4 8 2 356 358 6 10 8 7 1 356 350 345 340 335
243 244 246 249 252 252 254 255 256 258 257 256 260 260 260 265 268 263 259 266 272 277 296 310 318 314 317 323 326 330 339 344 352 357 356 351 344 341 339 336 334 331 331
246 245 245 247 249 249 249 252 255 257 257 256 256 258 257 262 265 262 262 269 270 272 280 285 288 287 290 300 309 315 320 323 331 330 330 330 329 329 328 326 324 324 324
247 247 245 245 247 247 248 252 255 257 257 257 257 258 256 259 261 261 265 270 268 267 271 275 279 280 281 287 295 302 307 312 315 315 317 318 318 319 317 316 317 318 319
246 247 246 246 245 247 248 251 254 258 256 256 258 256 257 257 257 259 263 266 267 269 271 274 276 277 279 281 284 286 292 298 301 306 310 311 312 312 311 309 309 311 312
247 244 242 245 246 245 245 251 253 256 256 255 256 255 254 257 257 258 259 262 264 268 268 272 273 274 274 274 278 281 284 290 296 301 304 305 305 306 306 305 304 305 306
246 243 242 242 244 244 248 256 257 257 257 255 255 255 255 258 259 260 262 263 266 269 267 270 273 274 272 272 276 279 282 287 290 294 297 299 300 302 302 300 300 301 302
242 242 243 243 245 246 249 256 259 259 257 254 253 255 256 258 260 259 261 262 265 266 267 270 271 273 275 274 275 276 279 283 286 290 294 296 298 299 299 298 297 298 298
246 245 247 247 248 250 254 258 259 260 258 254 254 256 257 260 261 259 261 262 263 264 267 272 273 274 277 277 276 277 279 282 286 289 291 293 295 296 296 296 296 296 297
251 251 252 252 252 254 257 259 260 260 257 256 258 259 259 261 260 259 258 261 263 265 267 270 273 275 277 278 278 278 281 283 286 288 289 291 293 293 293 294 295 295 295
253 253 254 255 254 257 259 260 261 260 256 254 256 260 262 260 260 260 260 262 264 264 266 270 272 275 277 279 279 280 281 283 286 287 287 288 290 291 293 293 293 293 293
255 254 257 258 257 258 260 262 262 261 257 254 255 258 260 259 258 261 260 261 263 264 267 270 273 275 277 278 280 280 282 283 285 286 287 288 289 290 291 292 292 292 292
256 258 260 260 260 263 263 263 262 261 258 257 257 258 259 260 261 261 262 262 263 266 270 272 274 277 278 278 279 280 281 283 284 286 287 287 288 290 291 291 291 292 292
259 262 262 262 261 263 263 264 262 260 258 258 258 260 262 263 265 265 265 265 268 270 273 276 277 279 280 280 280 281 282 283 284 285 287 288 289 289 290 291 292 291 292
261 263 263 263 262 263 266 266 263 260 260 261 261 261 262 264 267 268 268 269 271 272 274 276 279 280 281 282 281 282 283 284 285 287 288 289 289 290 291 292 292 292 292
260 261 265 265 264 266 265 267 263 262 262 260 260 261 264 267 268 269 270 272 274 275 276 277 279 280 280 282 282 283 284 285 287 288 288 288 289 290 291 292 292 293 292
261 262 265 267 267 267 266 265 263 263 261 259 260 263 267 269 269 272 274 274 275 277 278 279 280 281 282 281 282 284 285 286 287 288 288 289 289 290 291 291 292 292 292
Height
5893 5893 5894 5894 5893 5895 5895 5895 5896 5896 5896 5896 5897 5897 5897 5897 5896 5896 5896 5896 5896 5896 5896 5896 5896 5896 5896 5896 5896 5896 5896 5897 5897 5897 5897 5897 5897 5898 5898 5898 5898 5899 5899
5893 5893 5894 5894 5894 5895 5895 5896 5896 5896 5896 5897 5897 5897 5897 5897 5897 5896 5896 5896 5896 5896 5896 5896 5896 5896 5896 5896 5896 5896 5896 5896 5896 5897 5897 5897 5897 5897 5897 5897 5897 5898 5898
5892 5893 5893 5894 5894 5894 5895 5895 5896 5896 5896 5897 5897 5897 5897 5897 5897 5897 5896 5896 5896 5896 5896 5896 5896 5896 5896 5896 5896 5896 5896 5896 5896 5896 5896 5896 5896 5896 5897 5897 5897 5897 5897
5891 5892 5893 5894 5894 5894 5895 5895 5895 5896 5896 5896 5897 5897 5897 5897 5897 5897 5897 5896 5896 5896 5896 5896 5896 5896 5896 5896 5896 5896 5896 5896 5896 5896 5895 5895 5896 5896 5896 5896 5896 5896 5896
5890 5891 5892 5893 5893 5894 5894 5894 5895 5895 5896 5896 5897 5897 5897 5897 5897 5897 5897 5897 5897 5897 5897 5897 5897 5897 5896 5896 5896 5896 5896 5896 5895 5895 5895 5895 5895 5895 5895 5895 5895 5895 5895
5889 5890 5891 5892 5893 5893 5893 5894 5894 5895 5895 5896 5896 5896 5897 5897 5897 5897 5897 5897 5897 5897 5897 5897 5897 5897 5896 5896 5896 5896 5896 5896 5896 5895 5895 5895 5895 5895 5895 5895 5895 5894 5894
5888 5889 5890 5891 5892 5892 5893 5893 5894 5894 5895 5895 5896 5896 5896 5896 5897 5897 5897 5897 5897 5897 5897 5897 5897 5897 5897 5897 5897 5897 5896 5896 5896 5895 5895 5895 5895 5895 5894 5894 5894 5894 5894
5886 5887 5888 5890 5890 5891 5892 5892 5893 5894 5894 5895 5895 5896 5896 5897 5896 5897 5897 5897 5897 5897 5897 5897 5897 5897 5897 5897 5897 5897 5896 5896 5896 5895 5895 5895 5894 5894 5894 5894 5894 5893 5893
5885 5886 5887 5888 5889 5890 5891 5891 5892 5893 5893 5894 5895 5895 5896 5896 5896 5896 5896 5896 5896 5896 5896 5896 5897 5897 5897 5897 5897 5897 5896 5896 5896 5895 5895 5895 5894 5894 5894 5894 5893 5893 5893
5883 5884 5886 5887 5888 5889 5889 5890 5891 5892 5892 5893 5894 5894 5895 5895 5895 5895 5896 5896 5896 5896 5896 5896 5896 5896 5896 5896 5896 5896 5896 5896 5895 5895 5895 5895 5894 5894 5894 5893 5893 5892 5892
5880 5882 5884 5885 5886 5887 5888 5889 5890 5890 5891 5892 5892 5893 5894 5894 5894 5895 5895 5895 5895 5895 5895 5896 5896 5896 5896 5896 5896 5896 5895 5895 5895 5895 5895 5894 5894 5893 5893 5893 5892 5891 5891
5878 5880 5882 5883 5884 5885 5886 5887 5888 5889 5889 5890 5891 5891 5892 5892 5893 5893 5894 5894 5894 5895 5895 5895 5895 5895 5895 5895 5895 5895 5894 5894 5894 5894 5894 5894 5893 5893 5892 5891 5891 5890 5889
5876 5877 5879 5880 5882 5883 5884 5885 5886 5887 5887 5888 5889 5889 5890 5891 5891 5892 5892 5893 5893 5893 5894 5894 5894 5894 5894 5894 5894 5893 5893 5893 5893 5893 5893 5892 5892 5891 5891 5890 5889 5888 5887
5873 5874 5876 5877 5878 5880 5881 5882 5883 5884 5885 5885 5886 5887 5888 5889 5889 5890 5891 5891 5892 5892 5892 5892 5892 5892 5892 5892 5892 5892 5892 5892 5892 5891 5891 5890 5890 5889 5888 5887 5886 5886 5884
5869 5871 5872 5874 5875 5877 5878 5880 5881 5881 5882 5883 5884 5885 5886 5886 5887 5888 5888 5889 5890 5890 5890 5890 5890 5890 5890 5890 5890 5890 5890 5890 5890 5889 5889 5888 5887 5886 5885 5884 5883 5882 5881
5865 5867 5868 5870 5872 5874 5875 5877 5878 5878 5879 5880 5881 5882 5883 5884 5885 5885 5886 5886 5887 5887 5887 5888 5888 5888 5888 5888 5888 5888 5888 5887 5887 5887 5886 5885 5884 5883 5882 5881 5880 5879 5877
5862 5864 5865 5867 5869 5870 5872 5873 5874 5875 5876 5877 5878 5879 5880 5881 5881 5882 5882 5883 5884 5884 5884 5885 5885 5885 5885 5885 5885 5885 5885 5884 5884 5883 5882 5881 5880 5879 5878 5877 5875 5874 5872
5859 5861 5862 5864 5865 5867 5868 5869 5870 5871 5872 5873 5874 5875 5876 5877 5878 5878 5879 5880 5880 5881 5881 5882 5882 5882 5881 5882 5882 5881 5881 5881 5880 5879 5878 5877 5876 5875 5873 5872 5870 5868 5867
5856 5857 5859 5860 5861 5863 5864 5865 5866 5867 5868 5869 5870 5871 5872 5873 5874 5874 5875 5876 5876 5877 5877 5878 5878 5878 5878 5877 5877 5877 5876 5876 5875 5874 5873 5872 5871 5869 5868 5866 5864 5863 5861
5852 5853 5855 5856 5857 5858 5860 5861 5862 5863 5864 5865 5866 5867 5868 5868 5869 5870 5870 5871 5872 5872 5873 5873 5874 5873 5873 5872 5872 5872 5871 5870 5869 5868 5867 5866 5865 5863 5861 5859 5858 5856 5854
5848 5850 5851 5852 5853 5854 5855 5856 5857 5858 5859 5860 5861 5862 5863 5864 5865 5865 5866 5867 5867 5868 5868 5868 5868 5868 5868 5867 5867 5866 5865 5864 5863 5862 5861 5859 5858 5856 5854 5852 5850 5848 5846
5844 5845 5847 5848 5849 5850 5851 5851 5852 5853 5854 5855 5856 5857 5858 5859 5860 5860 5861 5861 5862 5862 5862 5862 5862 5862 5862 5861 5860 5859 5859 5858 5856 5855 5853 5852 5850 5848 5846 5844 5842 5839 5837
5840 5841 5842 5843 5844 5845 5845 5846 5847 5848 5849 5850 5851 5852 5853 5854 5854 5855 5855 5856 5856 5856 5856 5856 5856 5855 5854 5854 5853 5852 5850 5850 5848 5846 5845 5843 5841 5839 5837 5835 5833 5830 5827
5836 5837 5838 5839 5839 5840 5840 5841 5841 5842 5843 5845 5846 5847 5847 5848 5848 5849 5849 5849 5849 5849 5849 5849 5849 5847 5846 5845 5844 5843 5842 5841 5839 5837 5835 5834 5831 5829 5827 5825 5822 5819 5816
5832 5833 5833 5834 5835 5836 5836 5836 5836 5837 5839 5840 5841 5842 5842 5842 5843 5843 5843 5843 5843 5842 5842 5841 5840 5839 5838 5837 5835 5834 5833 5831 5830 5828 5825 5823 5821 5819 5817 5814 5810 5808 5805
5828 5829 5829 5830 5831 5831 5831 5832 5832 5833 5834 5834 5835 5836 5836 5837 5837 5836 5836 5836 5836 5835 5834 5833 5832 5831 5829 5827 5826 5825 5823 5821 5820 5818 5815 5812 5810 5807 5805 5802 5799 5796 5793